Weather History for Jesup, GA

Change the Weather History Date:

Saturday, August 30, 2014

  Actual Average (KLHW) Record (KLHW)
Temperature  
Mean Temperature 86 °F -  
Max Temperature 98 °F 88 °F 98 °F (1990)
Min Temperature 73 °F 70 °F 58 °F (1986)
Cooling Degree Days 20    
Growing Degree Days 36 (Base 50)    
Moisture  
Dew Point 75 °F    
Average Humidity 78    
Maximum Humidity 100    
Minimum Humidity 42    
Precipitation  
Precipitation 0.00 in - - ()
Sea Level Pressure  
Sea Level Pressure 30.12 in    
Wind  
Wind Speed 2 mph (SE)    
Max Wind Speed 13 mph    
Max Gust Speed 18 mph    
Visibility 10 miles    
Events      
Averages and records for this station are not official NWS values.
T = Trace of Precipitation, MM = Missing Value Source: NWS Daily Summary

Daily Weather History Graph

Daily Weather History Graph

Search for Another Location

Airport:

Trip Planner

Search our weather history database for the weather conditions in past years. The results will help you decide how hot, cold, wet, or windy it might be!

Date:

Astronomy

Aug. 30, 2014 Rise Set
Actual Time 7:02 AM EDT 7:53 PM EDT
Civil Twilight 6:37 AM EDT 8:18 PM EDT
Nautical Twilight 6:07 AM EDT 8:47 PM EDT
Astronomical Twilight 5:37 AM EDT 9:17 PM EDT
Moon 11:28 AM EDT (8/30) 10:48 PM EDT (8/30)
Length of Visible Light 13h 41m
Length of Day
12h 51m
Waxing Crescent, 23% of the Moon is Illuminated
Aug 30
Waxing Crescent
Sep 2
First Quarter
Sep 8
Full
Sep 15
Last Quarter
Sep 24
New

Hourly Weather History & Observations

Time (EDT) Temp. Heat Index Dew Point Humidity Pressure Visibility Wind Dir Wind Speed Gust Speed Precip Events Conditions
12:15 AM 77.0 °F - 73.4 °F 89% 30.11 in 10.0 mi Calm Calm - N/A   Unknown
12:35 AM 77.0 °F - 73.4 °F 89% 30.11 in 10.0 mi Calm Calm - N/A   Unknown
12:55 AM 77.0 °F - 73.4 °F 89% 30.11 in 10.0 mi Calm Calm - N/A   Unknown
1:15 AM 77.0 °F - 73.4 °F 89% 30.12 in 10.0 mi Calm Calm - N/A   Unknown
1:35 AM 75.2 °F - 73.4 °F 94% 30.12 in 10.0 mi Calm Calm - N/A   Unknown
1:55 AM 77.0 °F - 73.4 °F 89% 30.12 in 10.0 mi Calm Calm - N/A   Unknown
2:15 AM 77.0 °F - 73.4 °F 89% 30.12 in 10.0 mi Calm Calm - N/A   Unknown
2:35 AM 75.2 °F - 73.4 °F 94% 30.12 in 10.0 mi Calm Calm - N/A   Unknown
2:55 AM 75.2 °F - 73.4 °F 94% 30.12 in 10.0 mi Calm Calm - N/A   Unknown
3:15 AM 75.2 °F - 73.4 °F 94% 30.11 in 10.0 mi Calm Calm - N/A   Unknown
3:55 AM 75.2 °F - 73.4 °F 94% 30.11 in 10.0 mi Calm Calm - N/A   Unknown
4:15 AM 75.2 °F - 73.4 °F 94% 30.10 in 10.0 mi Calm Calm - N/A   Unknown
4:35 AM 75.2 °F - 73.4 °F 94% 30.11 in 3.0 mi Calm Calm - N/A   Mist
4:55 AM 73.4 °F - 73.4 °F 100% 30.11 in 5.0 mi Calm Calm - N/A   Mist
5:15 AM 73.4 °F - 73.4 °F 100% 30.11 in 10.0 mi Calm Calm - N/A   Unknown
5:35 AM 73.4 °F - 73.4 °F 100% 30.11 in 10.0 mi Calm Calm - N/A   Unknown
5:55 AM 73.4 °F - 73.4 °F 100% 30.11 in 7.0 mi Calm Calm - N/A   Unknown
6:15 AM 73.4 °F - 73.4 °F 100% 30.11 in 7.0 mi Calm Calm - N/A   Unknown
6:35 AM 73.4 °F - 71.6 °F 94% 30.12 in 5.0 mi Calm Calm - N/A   Mist
7:15 AM 73.4 °F - 71.6 °F 94% 30.13 in 10.0 mi Calm Calm - N/A   Unknown
7:35 AM 73.4 °F - 71.6 °F 94% 30.14 in 10.0 mi Calm Calm - N/A   Unknown
7:55 AM 75.2 °F - 73.4 °F 94% 30.15 in 7.0 mi Calm Calm - N/A   Unknown
8:15 AM 77.0 °F - 75.2 °F 94% 30.15 in 10.0 mi Calm Calm - N/A   Unknown
8:35 AM 78.8 °F - 75.2 °F 89% 30.15 in 10.0 mi Calm Calm - N/A   Unknown
8:55 AM 80.6 °F 87.1 °F 77.0 °F 89% 30.16 in 10.0 mi Calm Calm - N/A   Unknown
9:15 AM 82.4 °F 90.9 °F 77.0 °F 84% 30.16 in 10.0 mi SE 3.5 mph - N/A   Unknown
9:35 AM 82.4 °F 90.9 °F 77.0 °F 84% 30.16 in 10.0 mi SSE 3.5 mph - N/A   Unknown
9:55 AM 84.2 °F 94.1 °F 77.0 °F 79% 30.17 in 10.0 mi ESE 6.9 mph - N/A   Unknown
10:15 AM 86.0 °F 96.9 °F 77.0 °F 74% 30.17 in 10.0 mi SE 5.8 mph - N/A   Unknown
10:35 AM 87.8 °F 99.7 °F 77.0 °F 70% 30.17 in 10.0 mi SE 6.9 mph - N/A   Unknown
10:55 AM 87.8 °F 99.7 °F 77.0 °F 70% 30.17 in 10.0 mi SE 6.9 mph - N/A   Unknown
11:15 AM 89.6 °F 102.2 °F 77.0 °F 66% 30.17 in 10.0 mi SE 5.8 mph - N/A   Unknown
11:35 AM 89.6 °F 102.2 °F 77.0 °F 66% 30.16 in 10.0 mi SE 5.8 mph - N/A   Unknown
11:55 AM 91.4 °F 105.1 °F 77.0 °F 63% 30.16 in 10.0 mi SSE 8.1 mph - N/A   Unknown
12:35 PM 95.0 °F 104.5 °F 73.4 °F 49% 30.15 in 10.0 mi ENE 5.8 mph - N/A   Unknown
12:55 PM 93.2 °F 102.4 °F 73.4 °F 52% 30.14 in 10.0 mi SE 3.5 mph - N/A   Unknown
1:15 PM 93.2 °F 102.4 °F 73.4 °F 52% 30.13 in 10.0 mi SSE 3.5 mph - N/A   Unknown
1:35 PM 95.0 °F 104.5 °F 73.4 °F 49% 30.13 in 10.0 mi SSE 6.9 mph - N/A   Unknown
1:55 PM 93.2 °F 102.4 °F 73.4 °F 52% 30.12 in 10.0 mi East 6.9 mph - N/A   Unknown
2:15 PM 93.2 °F 102.4 °F 73.4 °F 52% 30.12 in 10.0 mi ESE 4.6 mph - N/A   Unknown
2:35 PM 95.0 °F 104.5 °F 73.4 °F 49% 30.11 in 10.0 mi East 8.1 mph - N/A   Unknown
2:55 PM 96.8 °F 107.3 °F 73.4 °F 47% 30.10 in 10.0 mi SE 4.6 mph - N/A   Unknown
3:15 PM 98.6 °F 107.7 °F 71.6 °F 42% 30.09 in 10.0 mi ESE 6.9 mph - N/A   Unknown
3:55 PM 91.4 °F 100.1 °F 73.4 °F 55% 30.08 in 10.0 mi East 10.4 mph - N/A   Unknown
4:15 PM 91.4 °F 102.5 °F 75.2 °F 59% 30.08 in 10.0 mi ESE 12.7 mph 16.1 mph N/A   Unknown
4:35 PM 91.4 °F 102.5 °F 75.2 °F 59% 30.08 in 10.0 mi SE 9.2 mph - N/A   Unknown
5:15 PM 95.0 °F 104.5 °F 73.4 °F 49% 30.07 in 10.0 mi SE 8.1 mph - N/A   Unknown
5:35 PM 91.4 °F 102.5 °F 75.2 °F 59% 30.07 in 10.0 mi SE 11.5 mph 18.4 mph N/A   Unknown
5:55 PM 91.4 °F 102.5 °F 75.2 °F 59% 30.07 in 10.0 mi SE 5.8 mph - N/A   Unknown
6:15 PM 91.4 °F 102.5 °F 75.2 °F 59% 30.07 in 10.0 mi SE 8.1 mph - N/A   Unknown
6:35 PM 91.4 °F 102.5 °F 75.2 °F 59% 30.07 in 10.0 mi SSE 5.8 mph - N/A   Unknown
6:55 PM 89.6 °F 98.2 °F 73.4 °F 59% 30.08 in 10.0 mi ESE 8.1 mph - N/A   Unknown
7:15 PM 87.8 °F 97.6 °F 75.2 °F 66% 30.08 in 10.0 mi SE 6.9 mph - N/A   Unknown
7:35 PM 87.8 °F 97.6 °F 75.2 °F 66% 30.09 in 10.0 mi ESE 5.8 mph - N/A   Unknown
7:55 PM 86.0 °F 95.1 °F 75.2 °F 70% 30.09 in 10.0 mi SE 3.5 mph - N/A   Unknown
8:15 PM 86.0 °F 96.9 °F 77.0 °F 74% 30.10 in 10.0 mi SE 3.5 mph - N/A   Unknown
8:35 PM 84.2 °F 94.1 °F 77.0 °F 79% 30.10 in 10.0 mi ESE 3.5 mph - N/A   Unknown
8:55 PM 82.4 °F 90.9 °F 77.0 °F 84% 30.11 in 10.0 mi ESE 4.6 mph - N/A   Unknown
9:15 PM 82.4 °F 90.9 °F 77.0 °F 84% 30.11 in 10.0 mi ESE 3.5 mph - N/A   Unknown
9:35 PM 82.4 °F 90.9 °F 77.0 °F 84% 30.12 in 10.0 mi ESE 4.6 mph - N/A   Unknown
9:55 PM 82.4 °F 90.9 °F 77.0 °F 84% 30.12 in 10.0 mi Calm Calm - N/A   Unknown
10:15 PM 80.6 °F 87.1 °F 77.0 °F 89% 30.13 in 10.0 mi Calm Calm - N/A   Unknown
10:35 PM 80.6 °F 87.1 °F 77.0 °F 89% 30.14 in 10.0 mi Calm Calm - N/A   Unknown
10:55 PM 78.8 °F - 77.0 °F 94% 30.14 in 10.0 mi Calm Calm - N/A   Unknown
11:15 PM 78.8 °F - 77.0 °F 94% 30.14 in 10.0 mi Calm Calm - N/A   Unknown
11:35 PM 78.8 °F - 77.0 °F 94% 30.14 in 10.0 mi Calm Calm - N/A   Unknown
11:55 PM 78.8 °F - 75.2 °F 89% 30.15 in 10.0 mi Calm Calm - N/A   Unknown